EW8495 Weather Reports


time (UTC)temp
F
wind
direction
speed
knots
gust
knots
rain 1hr
in
rain 24hr
in
rain mn
in
humidity
%
barometer
mb
20260905191019 97 229 0.9 7.0 0.00 0.00 0.00 49 1012.7
20260905190527 97 183 2.6 7.0 0.00 0.00 0.00 48 1012.7
20260905190056 96 180 1.7 6.1 0.00 0.00 0.00 49 1012.8
20260905185521 96 0 0.0 2.6 0.00 0.00 0.00 57 1012.8
20260905185019 95 0 0.0 2.6 0.00 0.00 0.00 55 1012.9
20260905184557 95 350 0.9 2.6 0.00 0.00 0.00 56 1013.1
20260905184018 94 37 0.0 2.6 0.00 0.00 0.00 61 1013.1
20260905183518 94 74 0.0 4.3 0.00 0.00 0.00 57 1013.1
20260905183036 94 0 0.0 4.3 0.00 0.00 0.00 59 1013.2
20260905182518 94 315 1.7 4.3 0.00 0.00 0.00 57 1013.1
20260905182018 95 37 0.9 3.5 0.00 0.00 0.00 58 1013.2
20260905181543 95 0 0.0 3.5 0.00 0.00 0.00 59 1013.3
20260905181022 94 223 0.9 3.5 0.00 0.00 0.00 59 1013.4
20260905180521 94 313 0.9 7.0 0.00 0.00 0.00 58 1013.4
20260905180036 94 94 0.9 7.0 0.00 0.00 0.00 57 1013.4
20260905175521 94 296 1.7 7.0 0.00 0.00 0.00 59 1013.4
20260905175020 94 319 0.9 5.2 0.00 0.00 0.00 60 1013.4
20260905174544 94 344 0.9 3.5 0.00 0.00 0.00 64 1013.5
20260905174018 94 42 0.9 3.5 0.00 0.00 0.00 63 1013.5
20260905173519 94 0 0.0 3.5 0.00 0.00 0.00 61 1013.5
20260905173040 94 360 0.9 4.3 0.00 0.00 0.00 60 1013.5
20260905172516 93 0 0.9 4.3 0.00 0.00 0.00 63 1013.7
20260905172021 92 126 0.0 5.2 0.00 0.00 0.00 63 1014.0
20260905171539 92 113 2.6 5.2 0.00 0.00 0.00 62 1014.1
20260905171020 92 167 0.9 3.5 0.00 0.00 0.00 60 1014.1
20260905170520 93 34 0.9 3.5 0.00 0.00 0.00 60 1014.2
20260905170035 93 322 0.9 3.5 0.00 0.00 0.00 63 1014.1
20260905165519 93 0 0.9 2.6 0.00 0.00 0.00 60 1014.2
20260905165019 92 311 0.0 2.6 0.00 0.00 0.00 62 1014.3
20260905164535 92 309 0.9 2.6 0.00 0.00 0.00 64 1014.4
20260905164017 91 167 0.9 2.6 0.00 0.00 0.00 60 1014.4
20260905163516 91 105 0.9 3.5 0.00 0.00 0.00 62 1014.4
20260905163040 91 90 0.9 3.5 0.00 0.00 0.00 63 1014.4
20260905162520 92 41 0.9 5.2 0.00 0.00 0.00 63 1014.4
20260905162021 92 125 1.7 5.2 0.00 0.00 0.00 63 1014.3
20260905161537 92 292 0.9 3.5 0.00 0.00 0.00 61 1014.4
20260905161020 91 348 0.0 2.6 0.00 0.00 0.00 63 1014.5
20260905160519 91 196 0.0 2.6 0.00 0.00 0.00 62 1014.5
20260905160036 91 336 0.9 2.6 0.00 0.00 0.00 61 1014.7
20260905155517 91 0 0.0 4.3 0.00 0.00 0.00 60 1014.8
20260905155018 91 352 0.9 5.2 0.00 0.00 0.00 63 1014.8
20260905154540 91 310 0.9 6.1 0.00 0.00 0.00 61 1014.7
20260905154020 91 15 0.9 6.1 0.00 0.00 0.00 62 1014.7
20260905153521 91 0 0.9 3.5 0.00 0.00 0.00 64 1014.7
20260905153038 90 42 0.9 3.5 0.00 0.00 0.00 61 1014.9
20260905152521 90 0 0.0 3.5 0.00 0.00 0.00 63 1015.0
20260905152020 90 333 0.9 7.0 0.00 0.00 0.00 62 1014.8
20260905151542 90 329 0.9 9.6 0.00 0.00 0.00 64 1014.8
20260905151019 89 352 1.7 9.6 0.00 0.00 0.00 64 1014.7
20260905150520 89 360 3.5 9.6 0.00 0.00 0.00 63 1014.8
20260905150042 89 352 2.6 7.0 0.00 0.00 0.00 68 1014.8
20260905145517 89 341 1.7 7.0 0.00 0.00 0.00 67 1014.7
20260905145019 89 325 1.7 7.0 0.00 0.00 0.00 65 1014.7
20260905144543 89 350 2.6 5.2 0.00 0.00 0.00 67 1014.9
20260905144020 88 333 0.9 3.5 0.00 0.00 0.00 67 1014.9
20260905143516 88 0 0.9 3.5 0.00 0.00 0.00 66 1014.8
20260905143039 88 320 0.9 2.6 0.00 0.00 0.00 69 1014.8
20260905142523 87 0 0.9 2.6 0.00 0.00 0.00 69 1014.9
20260905142018 86 0 0.0 0.9 0.00 0.00 0.00 75 1014.8
20260905141543 86 0 0.0 0.9 0.00 0.00 0.00 72 1014.7
20260905141020 86 0 0.0 2.6 0.00 0.00 0.00 69 1014.7
20260905140519 86 0 0.0 2.6 0.00 0.00 0.00 71 1014.7
20260905140041 86 141 0.0 2.6 0.00 0.00 0.00 71 1014.7
20260905135516 86 117 0.0 1.7 0.00 0.00 0.00 73 1014.7
20260905135018 85 0 0.0 0.9 0.00 0.00 0.00 75 1014.6
20260905134537 85 0 0.0 0.9 0.00 0.00 0.00 74 1014.6
20260905134023 85 0 0.0 1.7 0.00 0.00 0.00 75 1014.6
20260905133520 84 0 0.0 1.7 0.00 0.00 0.00 73 1014.7
20260905133037 84 0 0.0 1.7 0.00 0.00 0.00 75 1014.7
20260905132522 83 115 0.0 1.7 0.00 0.00 0.00 76 1014.7
20260905132020 83 0 0.9 3.5 0.00 0.00 0.00 77 1014.7
20260905131553 83 150 0.9 3.5 0.00 0.00 0.00 78 1014.7
20260905131018 82 161 0.0 3.5 0.00 0.00 0.00 81 1014.8
20260905130519 81 0 0.9 3.5 0.00 0.00 0.00 82 1014.9
20260905130040 79 161 0.0 1.7 0.00 0.00 0.00 88 1014.9
20260905125518 78 161 0.0 0.9 0.00 0.00 0.00 90 1014.9
20260905125018 78 0 0.0 0.9 0.00 0.00 0.00 90 1014.9
20260905124548 77 0 0.0 0.9 0.00 0.00 0.00 91 1014.9
20260905124022 77 0 0.0 0.9 0.00 0.00 0.00 91 1014.9
20260905123519 77 0 0.0 0.0 0.00 0.00 0.00 91 1015.0
20260905123053 76 0 0.0 0.0 0.00 0.00 0.00 91 1015.1
20260905122520 76 0 0.0 0.0 0.00 0.00 0.00 91 1015.1
20260905122020 76 0 0.0 0.0 0.00 0.00 0.00 91 1015.0
20260905121536 76 0 0.0 0.0 0.00 0.00 0.00 91 1015.0
20260905121017 76 0 0.0 0.0 0.00 0.00 0.00 90 1014.9
20260905120522 76 0 0.0 0.0 0.00 0.00 0.00 90 1015.0
20260905120040 76 0 0.0 0.0 0.00 0.00 0.00 90 1014.8
20260905115518 76 0 0.0 0.0 0.00 0.00 0.00 90 1014.9
20260905115021 76 0 0.0 0.0 0.00 0.00 0.00 89 1014.8
20260905114544 76 0 0.0 0.9 0.00 0.00 0.00 89 1014.8
20260905114018 76 0 0.0 0.9 0.00 0.00 0.00 90 1014.9
20260905113518 76 0 0.0 1.7 0.00 0.00 0.00 89 1014.9
20260905113041 76 0 0.0 1.7 0.00 0.00 0.00 89 1014.7
20260905112516 76 161 0.0 0.9 0.00 0.00 0.00 88 1014.6
20260905112019 77 0 0.0 0.9 0.00 0.00 0.00 88 1014.5
20260905111550 77 0 0.0 0.9 0.00 0.00 0.00 88 1014.4
20260905111023 77 0 0.0 0.9 0.00 0.00 0.00 87 1014.3
20260905110520 77 0 0.0 0.9 0.00 0.00 0.00 87 1014.1
20260905110037 77 0 0.0 0.9 0.00 0.00 0.00 87 1014.0
20260905105521 77 0 0.0 1.7 0.00 0.00 0.00 87 1014.0
20260905105019 78 161 0.0 1.7 0.00 0.00 0.00 86 1013.9
20260905104540 78 161 0.0 1.7 0.00 0.00 0.00 85 1013.9
20260905104018 78 0 0.0 0.9 0.00 0.00 0.00 84 1013.9
20260905103520 78 0 0.0 1.7 0.00 0.00 0.00 84 1013.9
20260905103038 78 0 0.0 2.6 0.00 0.00 0.00 84 1014.0
20260905102519 78 161 0.0 4.3 0.00 0.00 0.00 84 1014.1
20260905102020 78 198 0.9 4.3 0.00 0.00 0.00 85 1014.1
20260905101541 77 187 0.9 3.5 0.00 0.00 0.00 85 1014.1
20260905101020 77 187 0.0 0.9 0.00 0.00 0.00 87 1014.2
20260905100520 77 0 0.0 1.7 0.00 0.00 0.00 87 1014.2
20260905100038 77 0 0.0 1.7 0.00 0.00 0.00 87 1014.1
20260905095519 78 0 0.0 0.0 0.00 0.00 0.00 88 1014.1
20260905095018 77 0 0.0 0.0 0.00 0.00 0.00 88 1014.0
20260905094538 77 0 0.0 1.7 0.00 0.00 0.00 88 1014.0
20260905094020 77 0 0.0 1.7 0.00 0.00 0.00 88 1014.0
20260905093516 77 0 0.0 0.9 0.00 0.00 0.00 88 1014.0
20260905093039 77 0 0.0 0.0 0.00 0.00 0.00 88 1014.0
20260905092524 77 0 0.0 0.0 0.00 0.00 0.00 88 1013.8
20260905092025 77 0 0.0 0.0 0.00 0.00 0.00 88 1013.8
20260905091539 77 0 0.0 0.0 0.00 0.00 0.00 88 1013.7
20260905091021 77 0 0.0 0.0 0.00 0.00 0.00 88 1013.7
20260905090520 77 0 0.0 0.9 0.00 0.00 0.00 88 1013.7
20260905090040 77 0 0.0 0.9 0.00 0.00 0.00 88 1013.6
20260905085517 77 0 0.0 1.7 0.00 0.00 0.00 88 1013.4
20260905085019 77 0 0.0 1.7 0.00 0.00 0.00 88 1013.4
20260905084558 77 0 0.0 1.7 0.00 0.00 0.00 88 1013.4
20260905084021 77 0 0.0 1.7 0.00 0.00 0.00 88 1013.4
20260905083521 77 304 0.0 0.9 0.00 0.00 0.00 88 1013.4
20260905083038 77 0 0.0 0.0 0.00 0.00 0.00 88 1013.4
20260905082520 77 0 0.0 0.0 0.00 0.00 0.00 88 1013.4
20260905082019 77 0 0.0 0.0 0.00 0.00 0.00 88 1013.4
20260905081539 77 0 0.0 0.0 0.00 0.00 0.00 88 1013.5
20260905081020 77 0 0.0 0.0 0.00 0.00 0.00 88 1013.5
20260905080518 77 0 0.0 0.0 0.00 0.00 0.00 88 1013.5
20260905080038 77 0 0.0 0.0 0.00 0.00 0.00 88 1013.5
20260905075525 77 0 0.0 0.0 0.00 0.00 0.00 88 1013.6
20260905075019 77 0 0.0 0.0 0.00 0.00 0.00 88 1013.6
20260905074539 77 0 0.0 0.0 0.00 0.00 0.00 88 1013.5
20260905074019 77 0 0.0 0.0 0.00 0.00 0.00 88 1013.6
20260905073523 77 0 0.0 0.0 0.00 0.00 0.00 88 1013.6
20260905073041 78 0 0.0 0.0 0.00 0.00 0.00 88 1013.8
20260905072517 78 0 0.0 0.0 0.00 0.00 0.00 88 1013.8
20260905072020 78 0 0.0 0.0 0.00 0.00 0.00 88 1013.8
20260905071540 78 0 0.0 0.0 0.00 0.00 0.00 88 1013.8
20260905071017 78 0 0.0 0.0 0.00 0.00 0.00 88 1013.9
20260905070516 78 0 0.0 0.0 0.00 0.00 0.00 88 1013.8
20260905070042 78 0 0.0 0.0 0.00 0.00 0.00 88 1013.8
20260905065519 78 0 0.0 0.0 0.00 0.00 0.00 88 1013.8
20260905065021 78 0 0.0 0.0 0.00 0.00 0.00 88 1013.9
20260905064539 78 0 0.0 0.0 0.00 0.00 0.00 88 1013.9
20260905064021 78 0 0.0 0.0 0.00 0.00 0.00 88 1013.9
20260905063522 78 0 0.0 0.0 0.00 0.00 0.00 88 1014.0
20260905063038 78 0 0.0 0.0 0.00 0.00 0.00 88 1014.0
20260905062519 78 0 0.0 0.0 0.00 0.00 0.00 88 1014.1
20260905062018 78 0 0.0 0.0 0.00 0.00 0.00 88 1014.1
20260905061541 78 0 0.0 0.0 0.00 0.00 0.00 88 1014.2
20260905061017 78 0 0.0 0.0 0.00 0.00 0.00 88 1014.2
20260905060518 78 0 0.0 0.0 0.00 0.00 0.00 88 1014.2
20260905060039 78 0 0.0 0.0 0.00 0.00 0.00 88 1014.2
20260905055521 78 0 0.0 0.0 0.00 0.00 0.00 88 1014.3
20260905055021 78 0 0.0 0.0 0.00 0.00 0.00 87 1014.3
20260905054538 78 0 0.0 0.0 0.00 0.00 0.00 87 1014.3
20260905054020 78 0 0.0 0.0 0.00 0.00 0.00 87 1014.3
20260905053521 78 0 0.0 0.0 0.00 0.00 0.00 86 1014.4
20260905053035 78 0 0.0 0.0 0.00 0.00 0.00 86 1014.4
20260905052520 78 0 0.0 0.0 0.00 0.00 0.00 86 1014.5
20260905052018 78 0 0.0 0.0 0.00 0.00 0.00 86 1014.5
20260905051541 79 0 0.0 0.0 0.00 0.00 0.00 86 1014.4
20260905051019 79 0 0.0 0.0 0.00 0.00 0.00 86 1014.4
20260905050519 79 0 0.0 0.9 0.00 0.00 0.00 86 1014.3
20260905050038 79 0 0.0 0.9 0.00 0.00 0.00 86 1014.2
20260905045521 79 0 0.0 0.9 0.00 0.00 0.00 86 1014.2
20260905045022 79 0 0.0 0.9 0.00 0.00 0.00 85 1014.3
20260905044540 79 0 0.0 0.9 0.00 0.00 0.00 85 1014.3
20260905044021 79 0 0.0 0.9 0.00 0.00 0.00 84 1014.4
20260905043521 79 0 0.0 0.0 0.00 0.00 0.00 84 1014.4
20260905043045 79 0 0.0 0.0 0.00 0.00 0.00 84 1014.4
20260905042520 79 0 0.0 0.0 0.00 0.00 0.00 83 1014.4
20260905042019 80 0 0.0 0.0 0.00 0.00 0.00 83 1014.4
20260905041540 80 0 0.0 0.0 0.00 0.00 0.00 83 1014.4
20260905041019 80 0 0.0 0.0 0.00 0.00 0.00 83 1014.3
20260905040518 80 0 0.0 0.0 0.00 0.00 0.00 83 1014.3
20260905040040 80 0 0.0 0.0 0.00 0.00 0.00 83 1014.3
20260905035519 80 0 0.0 0.0 0.00 0.00 0.00 83 1014.3
20260905035020 80 0 0.0 0.0 0.00 0.00 0.00 83 1014.2
20260905034546 80 0 0.0 0.0 0.00 0.00 0.00 83 1014.3
20260905034018 80 0 0.0 0.9 0.00 0.00 0.00 83 1014.4
20260905033523 80 0 0.0 0.9 0.00 0.00 0.00 82 1014.3
20260905033037 81 0 0.0 0.0 0.00 0.00 0.00 82 1014.3
20260905032521 81 0 0.0 0.0 0.00 0.00 0.00 81 1014.2
20260905032021 81 0 0.0 0.0 0.00 0.00 0.00 81 1014.2
20260905031544 81 0 0.0 0.0 0.00 0.00 0.00 81 1014.3
20260905031020 81 0 0.0 0.0 0.00 0.00 0.00 81 1014.3
20260905030522 81 0 0.0 0.0 0.00 0.00 0.00 81 1014.4
20260905030040 81 0 0.0 0.0 0.00 0.00 0.00 81 1014.3
20260905025518 81 0 0.0 0.0 0.00 0.00 0.00 81 1014.3
20260905025024 81 0 0.0 0.0 0.00 0.00 0.00 81 1014.3
20260905024553 81 0 0.0 0.0 0.00 0.00 0.00 81 1014.4
20260905024019 81 0 0.0 0.0 0.00 0.00 0.00 80 1014.3
20260905023521 82 0 0.0 0.0 0.00 0.00 0.00 80 1014.4
20260905023043 82 0 0.0 0.0 0.00 0.00 0.00 79 1014.3
20260905022521 82 0 0.0 0.9 0.00 0.00 0.00 79 1014.4
20260905022018 82 0 0.0 0.9 0.00 0.00 0.00 79 1014.3
20260905021543 82 0 0.0 0.9 0.00 0.00 0.00 79 1014.2
20260905021021 82 0 0.0 0.9 0.00 0.00 0.00 78 1014.2
20260905020518 82 0 0.0 0.0 0.00 0.00 0.00 78 1014.2
20260905020042 83 0 0.0 0.0 0.00 0.00 0.00 78 1014.2
20260905015519 83 0 0.0 0.0 0.00 0.00 0.00 78 1014.2
20260905015021 83 0 0.0 0.0 0.00 0.00 0.00 77 1014.1
20260905014539 84 0 0.0 0.0 0.00 0.00 0.00 75 1014.1
20260905014019 84 0 0.0 0.0 0.00 0.00 0.00 74 1014.1
20260905013520 84 0 0.0 0.0 0.00 0.00 0.00 74 1014.1
20260905013038 84 0 0.0 0.0 0.00 0.00 0.00 74 1014.1
20260905012520 85 0 0.0 0.0 0.00 0.00 0.00 73 1014.0
20260905012019 85 0 0.0 0.0 0.00 0.00 0.00 73 1014.0
20260905011536 85 0 0.0 0.0 0.00 0.00 0.00 73 1013.9
20260905011018 86 0 0.0 0.0 0.00 0.00 0.00 73 1013.9
20260905010518 86 0 0.0 0.0 0.00 0.00 0.00 73 1013.8
20260905010035 86 0 0.0 0.0 0.00 0.00 0.00 73 1013.8
20260905005521 86 0 0.0 0.0 0.00 0.00 0.00 73 1013.8
20260905005016 87 0 0.0 0.0 0.00 0.00 0.00 73 1013.7
20260905004548 87 0 0.0 0.0 0.00 0.00 0.00 73 1013.7
20260905004019 87 0 0.0 0.0 0.00 0.00 0.00 72 1013.6
20260905003520 87 0 0.0 0.0 0.00 0.00 0.00 69 1013.6
20260905003039 88 0 0.0 0.0 0.00 0.00 0.00 69 1013.6
20260905002521 88 0 0.0 0.0 0.00 0.00 0.00 69 1013.6
20260905002020 88 0 0.0 0.0 0.00 0.00 0.00 67 1013.5
20260905001535 88 0 0.0 0.0 0.00 0.00 0.00 66 1013.6
20260905001018 88 0 0.0 0.0 0.00 0.00 0.00 66 1013.5
20260905000521 88 0 0.0 0.0 0.00 0.00 0.00 67 1013.5
20260905000034 88 0 0.0 0.0 0.00 0.00 0.00 67 1013.5
20260904235517 88 0 0.0 0.0 0.00 0.00 0.00 67 1013.5
20260904235018 88 0 0.0 0.0 0.00 0.00 0.00 66 1013.5
20260904234546 89 0 0.0 0.0 0.00 0.00 0.00 65 1013.5
20260904234020 89 0 0.0 0.9 0.00 0.00 0.00 64 1013.5
20260904233520 89 0 0.0 0.9 0.00 0.00 0.00 64 1013.5
20260904233053 90 0 0.0 0.9 0.00 0.00 0.00 65 1013.6
20260904232522 90 0 0.0 0.9 0.00 0.00 0.00 63 1013.6
20260904232019 91 0 0.0 0.9 0.00 0.00 0.00 64 1013.6
20260904231536 91 0 0.0 0.0 0.00 0.00 0.00 62 1013.6
20260904231018 92 0 0.0 0.0 0.00 0.00 0.00 61 1013.6
20260904230519 93 0 0.0 0.0 0.00 0.00 0.00 57 1013.4
20260904230035 94 0 0.0 0.9 0.00 0.00 0.00 57 1013.5
20260904225518 95 0 0.0 0.9 0.00 0.00 0.00 54 1013.5
20260904225017 95 0 0.0 0.9 0.00 0.00 0.00 53 1013.5
20260904224542 95 0 0.0 1.7 0.00 0.00 0.00 54 1013.5
20260904224020 95 0 0.0 1.7 0.00 0.00 0.00 56 1013.5
20260904223521 94 0 0.0 1.7 0.00 0.00 0.00 53 1013.5
20260904223042 94 0 0.0 2.6 0.00 0.00 0.00 53 1013.6
20260904222519 96 0 0.0 3.5 0.00 0.00 0.00 50 1013.6
20260904222019 96 0 0.9 3.5 0.00 0.00 0.00 50 1013.7
20260904221540 97 0 0.0 1.7 0.00 0.00 0.00 49 1013.7
20260904221019 97 0 0.0 1.7 0.00 0.00 0.00 51 1013.6
20260904220520 97 154 0.0 2.6 0.00 0.00 0.00 46 1013.5
20260904220040 97 0 0.0 6.1 0.00 0.00 0.00 48 1013.5
20260904215521 98 158 0.9 6.1 0.00 0.00 0.00 44 1013.6
20260904215023 98 188 2.6 6.1 0.00 0.00 0.00 44 1013.6
20260904214545 98 0 0.0 2.6 0.00 0.00 0.00 51 1013.6
20260904214026 98 341 0.0 2.6 0.00 0.00 0.00 45 1013.7
20260904213521 97 0 0.0 6.1 0.00 0.00 0.00 47 1013.7
20260904213041 97 0 0.9 6.1 0.00 0.00 0.00 46 1013.6
20260904212521 97 167 0.9 4.3 0.00 0.00 0.00 45 1013.8
20260904212025 96 0 0.9 1.7 0.00 0.00 0.00 49 1013.8
20260904211537 96 0 0.0 2.6 0.00 0.00 0.00 52 1013.8
20260904211021 97 324 0.0 2.6 0.00 0.00 0.00 46 1013.9
20260904210521 97 248 0.9 6.1 0.00 0.00 0.00 47 1013.9
20260904210042 97 0 0.9 6.1 0.00 0.00 0.00 45 1013.9
20260904205521 95 148 0.9 5.2 0.00 0.00 0.00 48 1014.0
20260904205020 96 13 0.9 4.3 0.00 0.00 0.00 47 1014.0
20260904204541 98 89 1.7 4.3 0.00 0.00 0.00 48 1014.1
20260904204017 97 347 0.0 4.3 0.00 0.00 0.00 48 1014.1
20260904203519 98 221 0.9 6.1 0.00 0.00 0.00 44 1014.2
20260904203039 97 183 1.7 6.1 0.00 0.00 0.00 47 1014.3
20260904202519 97 194 0.9 4.3 0.00 0.00 0.00 50 1014.4
20260904202022 96 0 0.0 1.7 0.00 0.00 0.00 49 1014.4
20260904201535 96 0 0.0 5.2 0.00 0.00 0.00 48 1014.5
20260904201020 97 119 2.6 5.2 0.00 0.00 0.00 46 1014.6
20260904200520 98 166 0.9 5.2 0.00 0.00 0.00 48 1014.7
20260904200045 98 132 2.6 5.2 0.00 0.00 0.00 48 1014.8
20260904195521 98 0 0.0 3.5 0.00 0.00 0.00 46 1015.0
20260904195020 98 0 0.9 3.5 0.00 0.00 0.00 46 1015.1
20260904194543 98 231 0.0 7.0 0.00 0.00 0.00 49 1015.2
20260904194019 98 226 0.9 7.0 0.00 0.00 0.00 47 1015.3
20260904193520 97 107 2.6 7.0 0.00 0.00 0.00 46 1015.4
20260904193046 96 165 0.9 6.1 0.00 0.00 0.00 48 1015.4
20260904192552 97 230 1.7 6.1 0.00 0.00 0.00 46 1015.5
20260904192020 97 0 1.7 6.1 0.00 0.00 0.00 50 1015.5
20260904191538 97 191 0.0 7.0 0.00 0.00 0.00 50 1015.6